Regional Weather Roundup
Issued by NWS Jackson, KY

Home | Current Version | Previous Version | Graphics & Text | Print | Product List | Glossary On
Versions: 1 2 3 4 5 6 7 8 9 10 11 12 13 14 15 16 17 18 19 20 21 22 23 24 25 26 27 28 29 30 31 32 33 34 35 36 37 38 39 40 41 42 43 44 45 46 47 48 49 50
112
ASUS43 KJKL 180910
RWRJKL

EAST KENTUCKY HOURLY WEATHER ROUNDUP
NATIONAL WEATHER SERVICE JACKSON KY
400 AM EST MON DEC 18 2017

NOTE: "FAIR" INDICATES FEW OR NO CLOUDS BELOW 12,000 FEET WITH
NO SIGNIFICANT WEATHER AND/OR OBSTRUCTIONS TO VISIBILITY.

* THESE REPORTS ARE NOT UNDER NWS QUALITY CONTROL AND MAY NOT
  REPORT WEATHER SUCH AS PRECIPITATION AND FOG.

KYZ079-080-083-085-087-088-110-112-115-119-120-181000
...EASTERN KENTUCKY...

CITY           SKY/WX    TMP DP  RH WIND       PRES   REMARKS
JACKSON        FOG       41  40  96 VRB3      30.13S VSB 1/2
LONDON         CLOUDY    44  43  96 CALM      30.14S FOG
SOMERSET*      CLOUDY    41  41 100 CALM      30.16R
MONTICELLO*    CLOUDY    44  43  96 NE7       30.16S
WILLIAMSBURG*  CLOUDY    43  43 100 SE3       30.14F
MIDDLESBORO*   CLOUDY    40  40 100 CALM      30.17S FOG
HARLAN APT*    CLOUDY    39  37  93 CALM      30.16S VSB 1/4
PIKE CO APT*   FOG       40  40 100 CALM      30.13S VSB 1/2
BIG SANDY APT* CLOUDY    41  41 100 CALM      30.14R FOG
MOREHEAD APT*  CLOUDY    43  39  87 SW6       30.14S FOG
$$

KYZ035-036-041-042-044-050-067-078-099-181000
...CENTRAL KENTUCKY...

CITY           SKY/WX    TMP DP  RH WIND       PRES   REMARKS
MT STERLING*   CLOUDY    41  39  93 CALM      30.14S
FLEMING/MASON* CLOUDY    39  39 100 S5        30.13S FOG
DANVILLE*      CLOUDY    43  41  93 SW3       30.13S
LEXINGTON      CLOUDY    43  40  89 S8        30.11S
FRANKFORT      CLOUDY    43  40  89 SW7       30.10S
LOUISVILLE     CLOUDY    45  42  89 SW7       30.11S
LEBANON*       FOG       41  41 100 SW5       30.14R VSB 3/4
GLASGOW*       CLOUDY   N/A N/A N/A CALM      30.14S FOG
BOWLING GREEN  CLOUDY    46  46 100 CALM      30.14S FOG
$$

KYZ091>093-OHZ055-061-077-WVZ005-015-034-035-042-181000
...SOUTHERN OHIO/WEST VIRGINIA...

CITY           SKY/WX    TMP DP  RH WIND       PRES   REMARKS
COVINGTON      FOG       40  40 100 S6        30.08S VSB 1/8
COLUMBUS       CLOUDY    39  36  89 S7        30.08S WCI  34
DAYTON         CLOUDY    39  38  96 SW9       30.06F WCI  33
WILMINGTON     CLOUDY    39  39 100 SW9       30.07F WCI  33
HUNTINGTON     CLOUDY    41  37  86 SW3       30.12F
CHARLESTON     CLOUDY    40  37  89 CALM      30.13S
PINEVILLE*     CLOUDY    38  37  98 MISG      30.17F FOG
BECKLEY        CLOUDY    39  37  92 SW6       30.10S WCI  35
BLUEFIELD      CLOUDY    39  38  96 W10       30.11F FOG     WCI  32
LOGAN CO APT*  FOG       41  41 100 CALM      30.12S VSB 1/4
$$

VAZ002-007-008-TNZ017-027-036-066-071-181000
...SOUTHWEST VIRGINIA/EAST TENNESSEE...

CITY           SKY/WX    TMP DP  RH WIND       PRES   REMARKS
WISE*          FOG       37  37 100 SW6       30.13S VSB 1/4 WCI  33
JONESVILLE*    FOG       39  39 100 CALM      30.19S VSB 1
ABINGDON*      CLOUDY    40  40 100 CALM      30.15S FOG
BRISTOL        CLOUDY    39  39 100 CALM      30.17S FOG
MORRISTOWN*    FOG       39  39 100 NE3       30.16S VSB 3/4
SEVIERVILLE*   CLOUDY    41  39  93 CALM      30.17F FOG
KNOXVILLE      DRZL/FOG  40  40 100 N5        30.17S VSB 1
LAFOLLETTE*    FOG       41  41 100 CALM      30.20S VSB 1
OAK RIDGE      CLOUDY    42  42 100 CALM      30.18S FOG
CROSSVILLE     CLOUDY    43  42  97 CALM      30.15R FOG
NASHVILLE      CLOUDY    47  46  97 S3        30.14F FOG
$$

...KEY TO REMARKS...
VSB - VISIBILITY IN MILES
WCI - WIND CHILL INDEX
HX  - HEAT INDEX

$$




USA.gov is the U.S. government's official web portal to all federal, state and local government web resources and services.